Weather History for KABY - April, 2013

Change the Weather History Date:

Sunday, April 14, 2013

  Actual Average Record
Temperature  
Mean Temperature 60 °F 66 °F  
Max Temperature 63 °F 79 °F 90 °F (1936)
Min Temperature 56 °F 53 °F 35 °F (1990)
Degree Days  
Heating Degree Days 6 2  
Month to date heating degree days 45  
Since 1 July heating degree days 1814  
Cooling Degree Days 0 3  
Month to date cooling degree days 34  
Year to date cooling degree days 72  
Growing Degree Days 9 (Base 50)    
Moisture  
Dew Point 56 °F    
Average Humidity 86    
Maximum Humidity 100    
Minimum Humidity 62    
Precipitation  
Precipitation 0.98 in 0.14 in 1.43 in (2007)
Month to date precipitation 1.26 2.04  
Year to date precipitation 14.18 16.07  
Sea Level Pressure  
Sea Level Pressure 29.98 in    
Wind  
Wind Speed 4 mph (East)    
Max Wind Speed 18 mph    
Max Gust Speed 26 mph    
Visibility 7 miles    
Events Rain , Thunderstorm    
T = Trace of Precipitation, MM = Missing Value Source: NWS Daily Summary

Daily Weather History Graph

Daily Weather History Graph

Search for Another Location

Airport or City:

Trip Planner

Search our weather history database for the weather conditions in past years. The results will help you decide how hot, cold, wet, or windy it might be!

Date:

Astronomy

Apr. 14, 2013 Rise Set
Actual Time 7:09 AM EDT 8:05 PM EDT
Civil Twilight 6:44 AM EDT 8:30 PM EDT
Nautical Twilight 6:14 AM EDT 8:59 PM EDT
Astronomical Twilight 5:44 AM EDT 9:29 PM EDT
Moon 9:56 AM EDT (4/14) No Moon Set
Length of Visible Light 13h 45m
Length of Day
12h 55m
Waxing Crescent, 17% of the Moon is Illuminated
Apr 14
Waxing Crescent
Apr 18
First Quarter
Apr 25
Full
May 2
Last Quarter
May 9
New

Hourly Weather History & Observations

Time (EDT) Temp. Dew Point Humidity Pressure Visibility Wind Dir Wind Speed Gust Speed Precip Events Conditions
12:53 AM 61.0 °F 50.0 °F 67% 30.00 in 10.0 mi Calm Calm - N/A   Clear
1:53 AM 61.0 °F 50.0 °F 67% 29.99 in 10.0 mi Calm Calm - N/A   Clear
2:53 AM 60.1 °F 50.0 °F 69% 29.99 in 10.0 mi Calm Calm - N/A   Clear
3:53 AM 55.9 °F 50.0 °F 80% 29.97 in 10.0 mi NE 4.6 mph - N/A   Clear
4:53 AM 59.0 °F 50.0 °F 72% 29.97 in 10.0 mi Calm Calm - N/A   Clear
5:53 AM 59.0 °F 48.9 °F 69% 29.96 in 10.0 mi ESE 4.6 mph - N/A   Clear
6:53 AM 62.1 °F 48.9 °F 62% 29.97 in 10.0 mi Calm Calm - N/A   Scattered Clouds
7:53 AM 62.1 °F 51.1 °F 67% 30.04 in 10.0 mi SSE 5.8 mph - 0.00 in   Mostly Cloudy
8:53 AM 59.0 °F 55.0 °F 87% 30.01 in 10.0 mi ENE 8.1 mph - 0.02 in Rain Light Rain
9:53 AM 60.1 °F 55.9 °F 86% 30.04 in 6.0 mi East 6.9 mph - 0.00 in Rain Light Rain
10:53 AM 60.1 °F 57.0 °F 90% 30.03 in 4.0 mi South 4.6 mph - 0.04 in   Overcast
11:20 AM 60.8 °F 57.2 °F 88% 30.03 in 8.0 mi ESE 4.6 mph - 0.01 in Rain Light Rain
11:53 AM 61.0 °F 57.0 °F 87% 30.02 in 10.0 mi ESE 8.1 mph - 0.01 in   Overcast
12:53 PM 62.1 °F 57.0 °F 84% 30.00 in 10.0 mi East 6.9 mph - N/A   Overcast
1:53 PM 63.0 °F 57.0 °F 81% 29.97 in 10.0 mi ESE 8.1 mph - 0.00 in Rain Light Rain
2:53 PM 63.0 °F 57.9 °F 84% 29.96 in 10.0 mi East 5.8 mph - 0.00 in Rain Light Rain
3:20 PM 62.6 °F 59.0 °F 88% 29.94 in 4.0 mi ENE 8.1 mph - 0.02 in Rain Rain
3:53 PM 62.1 °F 59.0 °F 90% 29.94 in 5.0 mi East 6.9 mph - 0.06 in Rain Rain
4:37 PM 60.8 °F 60.8 °F 100% 29.98 in 1.0 mi NW 9.2 mph - 0.18 in Rain , Thunderstorm Heavy Rain
4:53 PM 61.0 °F 60.1 °F 97% 29.98 in 1.5 mi NNW 10.4 mph - 0.26 in Rain Heavy Rain
5:18 PM 60.8 °F 60.8 °F 100% 30.00 in 0.8 mi NW 18.4 mph 26.5 mph 0.22 in Rain Heavy Rain
5:34 PM 60.8 °F 59.0 °F 94% 30.00 in 0.8 mi Calm Calm - 0.45 in Rain , Thunderstorm Heavy Rain
5:44 PM 60.8 °F 59.0 °F 94% 30.01 in 2.0 mi Calm Calm - 0.48 in Rain , Thunderstorm Thunderstorms and Rain
5:53 PM 61.0 °F 59.0 °F 93% 30.00 in 2.0 mi Calm Calm - 0.51 in Rain , Thunderstorm Heavy Thunderstorms and Rain
5:57 PM 60.8 °F 59.0 °F 94% 30.00 in 3.0 mi Calm Calm - 0.00 in Rain Rain
6:53 PM 60.1 °F 59.0 °F 96% 29.97 in 7.0 mi ESE 6.9 mph - 0.07 in Rain Light Rain
7:53 PM 61.0 °F 57.9 °F 90% 29.84 in 10.0 mi SE 12.7 mph - 0.01 in   Clear
8:53 PM 61.0 °F 57.9 °F 90% 29.79 in 10.0 mi ESE 17.3 mph 26.5 mph 0.00 in Rain Light Rain
9:53 PM 61.0 °F 59.0 °F 93% 29.93 in 10.0 mi West 5.8 mph - 0.00 in   Partly Cloudy
10:53 PM 59.0 °F 57.9 °F 96% 29.97 in 10.0 mi Calm Calm - N/A   Clear
11:53 PM 57.9 °F 57.0 °F 97% 29.96 in 10.0 mi East 3.5 mph - N/A   Clear